Location: Ar Ranvel
(48.3000°N, 4.8833°W)
Time: 10:58:12
(UTC+00:00)

COSMOS 2428 - Pass Details

Date: 16 June 2021
Orbit: 845 x 858 km, 70.9° (Epoch: 28 July)

Event Time Altitude Azimuth Distance (km) Brightness Sun altitude
Exits shadow 22:01:00 16° 150° (SSE) 2,095 4.1 -11.8°
Maximum altitude 22:04:23 27° 103° (ESE) 1,579 3.7 -12.1°
Drops below altitude 10° 22:09:08 10° 48° (NE) 2,501 5.3 -12.5°
Sets 22:11:55 0° 36° (NE) 3,443 6.2 -12.8°
